EW3043 Weather Reports


Display with metric or nautical units.
time (UTC)temp
F
wind
direction
speed
MPH
gust
MPH
rain 1hr
in
rain 24hr
in
rain mn
in
humidity
%
barometer
mb
20260903082139 55 246 1.0 3.0 0.00 0.00 0.00 14 1021.4
20260903081651 54 269 0.0 3.0 0.00 0.00 0.00 14 1021.4
20260903081150 54 176 0.0 2.0 0.00 0.00 0.00 14 1021.4
20260903080637 54 283 0.0 3.0 0.00 0.00 0.00 14 1021.5
20260903080136 54 268 1.0 3.0 0.00 0.00 0.00 15 1021.5
20260903075634 53 255 1.0 2.0 0.00 0.00 0.00 17 1021.5
20260903075152 53 255 0.0 2.0 0.00 0.00 0.00 17 1021.5
20260903074710 52 246 0.0 1.0 0.00 0.00 0.00 19 1021.5
20260903074145 51 247 0.0 1.0 0.00 0.00 0.00 19 1021.5
20260903073643 50 257 0.0 1.0 0.00 0.00 0.00 23 1021.5
20260903073142 51 257 0.0 1.0 0.00 0.00 0.00 25 1021.6
20260903072700 51 250 0.0 1.0 0.00 0.00 0.00 27 1021.6
20260903072137 51 250 0.0 1.0 0.00 0.00 0.00 28 1021.6
20260903071635 51 250 0.0 1.0 0.00 0.00 0.00 28 1021.7
20260903071153 51 248 0.0 1.0 0.00 0.00 0.00 28 1021.7
20260903070651 51 255 0.0 1.0 0.00 0.00 0.00 28 1021.7
20260903070149 51 258 0.0 1.0 0.00 0.00 0.00 29 1021.7
20260903065646 50 259 0.0 1.0 0.00 0.00 0.00 30 1021.7
20260903065144 50 259 0.0 1.0 0.00 0.00 0.00 31 1021.8
20260903064640 50 259 0.0 1.0 0.00 0.00 0.00 31 1021.8
20260903064139 50 259 0.0 1.0 0.00 0.00 0.00 32 1021.8
20260903063657 49 259 0.0 1.0 0.00 0.00 0.00 33 1021.8
20260903063133 49 259 0.0 1.0 0.00 0.00 0.00 33 1021.9
20260903062651 48 259 0.0 1.0 0.00 0.00 0.00 36 1021.9
20260903062148 48 259 0.0 0.0 0.00 0.00 0.00 38 1021.9
20260903061706 48 259 0.0 0.0 0.00 0.00 0.00 39 1021.9
20260903061142 48 259 0.0 0.0 0.00 0.00 0.00 39 1022.0
20260903060640 48 259 0.0 0.0 0.00 0.00 0.00 40 1022.0
20260903060138 48 259 0.0 0.0 0.00 0.00 0.00 41 1022.0
20260903055642 48 259 0.0 0.0 0.00 0.00 0.00 40 1022.1
20260903055139 49 259 0.0 0.0 0.00 0.00 0.00 41 1022.0
20260903054655 49 259 0.0 0.0 0.00 0.00 0.00 40 1022.1
20260903054213 49 259 0.0 0.0 0.00 0.00 0.00 40 1022.2
20260903053650 50 259 0.0 0.0 0.00 0.00 0.00 38 1022.2
20260903053149 50 260 0.0 1.0 0.00 0.00 0.00 38 1022.2
20260903052707 50 261 0.0 1.0 0.00 0.00 0.00 35 1022.1
20260903052146 50 260 0.0 0.0 0.00 0.00 0.00 32 1022.1
20260903051645 50 260 0.0 0.0 0.00 0.00 0.00 31 1022.1
20260903051134 50 260 0.0 0.0 0.00 0.00 0.00 31 1022.2
20260903050639 50 262 0.0 1.0 0.00 0.00 0.00 30 1022.1
20260903050137 50 262 0.0 1.0 0.00 0.00 0.00 29 1022.1
20260903045647 50 243 0.0 0.0 0.00 0.00 0.00 29 1022.1
20260903045146 50 243 0.0 1.0 0.00 0.00 0.00 31 1022.1
20260903044646 51 243 0.0 1.0 0.00 0.00 0.00 33 1022.1
20260903044152 51 243 0.0 1.0 0.00 0.00 0.00 33 1022.1
20260903043651 50 227 0.0 0.0 0.00 0.00 0.00 36 1022.1
20260903043149 50 227 0.0 0.0 0.00 0.00 0.00 41 1022.1
20260903042648 50 227 0.0 0.0 0.00 0.00 0.00 41 1022.1
20260903042141 50 227 0.0 1.0 0.00 0.00 0.00 42 1022.1
20260903041639 50 229 0.0 1.0 0.00 0.00 0.00 41 1022.0
20260903041138 50 229 0.0 1.0 0.00 0.00 0.00 43 1022.0
20260903040657 50 229 0.0 0.0 0.00 0.00 0.00 44 1021.9
20260903040134 51 229 0.0 0.0 0.00 0.00 0.00 45 1021.9
20260903035654 51 229 0.0 1.0 0.00 0.00 0.00 44 1021.9
20260903035151 51 229 0.0 1.0 0.00 0.00 0.00 43 1021.9
20260903034649 51 229 0.0 1.0 0.00 0.00 0.00 42 1021.9
20260903034148 51 221 0.0 1.0 0.00 0.00 0.00 42 1021.8
20260903033646 51 143 0.0 0.0 0.00 0.00 0.00 44 1021.7
20260903033154 51 143 0.0 0.0 0.00 0.00 0.00 45 1021.7
20260903032655 51 142 0.0 0.0 0.00 0.00 0.00 45 1021.6
20260903032152 52 354 0.0 1.0 0.00 0.00 0.00 46 1021.6
20260903031710 52 354 0.0 2.0 0.00 0.00 0.00 46 1021.6
20260903031150 52 1 0.0 2.0 0.00 0.00 0.00 47 1021.4
20260903030716 52 113 0.0 0.0 0.00 0.00 0.00 46 1021.5
20260903030141 53 113 0.0 0.0 0.00 0.00 0.00 44 1021.5
20260903025650 54 113 0.0 1.0 0.00 0.00 0.00 43 1021.5
20260903025146 55 190 0.0 1.0 0.00 0.00 0.00 37 1021.6
20260903024644 55 190 0.0 3.0 0.00 0.00 0.00 29 1021.6
20260903024143 55 191 0.0 3.0 0.00 0.00 0.00 30 1021.6
20260903023641 56 297 0.0 2.0 0.00 0.00 0.00 35 1021.6
20260903023200 56 250 0.0 3.0 0.00 0.00 0.00 35 1021.6
20260903022716 56 233 0.0 3.0 0.00 0.00 0.00 36 1021.6
20260903022143 56 237 0.0 2.0 0.00 0.00 0.00 41 1021.7
20260903021642 56 253 0.0 2.0 0.00 0.00 0.00 42 1021.8
20260903021141 56 148 0.0 1.0 0.00 0.00 0.00 43 1021.8
20260903020700 57 233 0.0 1.0 0.00 0.00 0.00 43 1021.9
20260903020158 57 256 0.0 1.0 0.00 0.00 0.00 43 1022.0
20260903015715 57 261 0.0 3.0 0.00 0.00 0.00 42 1022.1
20260903015150 58 297 1.0 3.0 0.00 0.00 0.00 42 1022.1
20260903014647 58 252 0.0 3.0 0.00 0.00 0.00 42 1022.1
20260903014146 59 260 1.0 3.0 0.00 0.00 0.00 41 1022.1
20260903013149 59 289 0.0 2.0 0.00 0.00 0.00 40 1022.3
20260903012707 60 301 0.0 2.0 0.00 0.00 0.00 39 1022.3
20260903012144 60 49 0.0 2.0 0.00 0.00 0.00 38 1022.3
20260903011641 61 258 1.0 2.0 0.00 0.00 0.00 37 1022.3
20260903011159 61 257 0.0 3.0 0.00 0.00 0.00 36 1022.3
20260903010635 61 224 0.0 3.0 0.00 0.00 0.00 35 1022.2
20260903010153 62 141 0.0 1.0 0.00 0.00 0.00 32 1022.3
20260903005653 62 137 0.0 2.0 0.00 0.00 0.00 31 1022.2
20260903005152 63 177 0.0 2.0 0.00 0.00 0.00 29 1022.1
20260903004649 63 252 1.0 2.0 0.00 0.00 0.00 29 1022.1
20260903004148 64 241 0.0 4.0 0.00 0.00 0.00 27 1022.1
20260903003646 64 262 1.0 4.0 0.00 0.00 0.00 25 1022.1
20260903003145 64 266 0.0 2.0 0.00 0.00 0.00 24 1022.1
20260903002643 64 236 0.0 2.0 0.00 0.00 0.00 24 1022.1
20260903002141 65 253 1.0 2.0 0.00 0.00 0.00 22 1022.1
20260903001638 65 101 1.0 5.0 0.00 0.00 0.00 23 1022.1
20260903001136 65 152 0.0 5.0 0.00 0.00 0.00 23 1022.1
20260903000655 65 332 1.0 4.0 0.00 0.00 0.00 23 1022.1
20260903000153 66 184 0.0 5.0 0.00 0.00 0.00 21 1022.3
20260902235654 66 238 1.0 5.0 0.00 0.00 0.00 21 1022.2
20260902235151 66 72 1.0 6.0 0.00 0.00 0.00 20 1022.3
20260902234650 66 226 2.0 6.0 0.00 0.00 0.00 19 1022.3
20260902234148 66 253 0.0 4.0 0.00 0.00 0.00 20 1022.3
20260902233647 67 247 1.0 5.0 0.00 0.00 0.00 20 1022.4
20260902233144 67 300 1.0 5.0 0.00 0.00 0.00 19 1022.4
20260902232641 67 249 1.0 5.0 0.00 0.00 0.00 19 1022.4
20260902232140 67 243 0.0 5.0 0.00 0.00 0.00 19 1022.4
20260902231639 67 252 1.0 7.0 0.00 0.00 0.00 19 1022.4
20260902231136 67 185 0.0 7.0 0.00 0.00 0.00 18 1022.6
20260902230654 68 229 1.0 4.0 0.00 0.00 0.00 18 1022.5
20260902230152 68 283 1.0 3.0 0.00 0.00 0.00 17 1022.8
20260902225650 68 46 1.0 4.0 0.00 0.00 0.00 17 1022.7
20260902225149 68 261 1.0 4.0 0.00 0.00 0.00 16 1022.8
20260902224647 68 298 1.0 5.0 0.00 0.00 0.00 16 1022.8
20260902224147 68 258 1.0 5.0 0.00 0.00 0.00 16 1022.8
20260902223644 69 246 1.0 4.0 0.00 0.00 0.00 17 1022.9
20260902223141 69 275 1.0 4.0 0.00 0.00 0.00 16 1023.0
20260902222640 69 345 1.0 4.0 0.00 0.00 0.00 17 1023.1
20260902222158 69 247 1.0 4.0 0.00 0.00 0.00 16 1023.1
20260902221655 69 276 1.0 5.0 0.00 0.00 0.00 17 1023.1
20260902221213 69 249 1.0 5.0 0.00 0.00 0.00 16 1023.2
20260902220650 69 214 1.0 9.0 0.00 0.00 0.00 16 1023.1
20260902220216 69 167 1.0 9.0 0.00 0.00 0.00 15 1023.2
20260902215655 69 205 1.0 4.0 0.00 0.00 0.00 15 1023.2
20260902215151 69 215 1.0 4.0 0.00 0.00 0.00 15 1023.4
20260902214650 70 265 2.0 4.0 0.00 0.00 0.00 14 1023.3
20260902214147 70 261 1.0 4.0 0.00 0.00 0.00 13 1023.5
20260902213645 70 346 1.0 4.0 0.00 0.00 0.00 13 1023.5
20260902213143 71 290 1.0 4.0 0.00 0.00 0.00 13 1023.5
20260902212651 71 276 1.0 4.0 0.00 0.00 0.00 13 1023.5
20260902212149 71 255 1.0 4.0 0.00 0.00 0.00 13 1023.5
20260902211650 71 292 1.0 3.0 0.00 0.00 0.00 14 1023.5
20260902211148 71 329 1.0 4.0 0.00 0.00 0.00 13 1023.4
20260902210647 71 288 1.0 4.0 0.00 0.00 0.00 13 1023.4
20260902210146 72 268 1.0 4.0 0.00 0.00 0.00 12 1023.4
20260902205645 72 243 1.0 4.0 0.00 0.00 0.00 12 1023.4
20260902205226 71 261 1.0 5.0 0.00 0.00 0.00 12 1023.4
20260902204641 72 283 2.0 5.0 0.00 0.00 0.00 11 1023.4
20260902204140 73 258 1.0 5.0 0.00 0.00 0.00 11 1023.4
20260902203649 72 289 1.0 6.0 0.00 0.00 0.00 11 1023.3
20260902203147 72 209 2.0 6.0 0.00 0.00 0.00 11 1023.4
20260902202647 72 193 1.0 4.0 0.00 0.00 0.00 11 1023.6
20260902201642 73 228 1.0 6.0 0.00 0.00 0.00 11 1023.8
20260902201141 72 285 1.0 6.0 0.00 0.00 0.00 11 1023.8
20260902200640 72 266 2.0 4.0 0.00 0.00 0.00 10 1023.7
20260902200138 73 143 1.0 4.0 0.00 0.00 0.00 10 1023.8
20260902195717 73 237 1.0 3.0 0.00 0.00 0.00 10 1023.7
20260902195154 73 104 1.0 4.0 0.00 0.00 0.00 11 1023.7
20260902194652 73 252 1.0 4.0 0.00 0.00 0.00 11 1023.6
20260902194148 73 156 1.0 4.0 0.00 0.00 0.00 12 1023.6
20260902193705 72 138 1.0 7.0 0.00 0.00 0.00 12 1023.7
20260902193141 72 293 1.0 7.0 0.00 0.00 0.00 12 1023.7
20260902192639 72 279 1.0 5.0 0.00 0.00 0.00 11 1023.7
20260902192217 72 217 1.0 4.0 0.00 0.00 0.00 11 1023.7
20260902191654 72 277 1.0 5.0 0.00 0.00 0.00 11 1023.8
20260902191211 72 10 1.0 5.0 0.00 0.00 0.00 11 1023.8
20260902190647 72 245 2.0 5.0 0.00 0.00 0.00 11 1023.8
20260902190144 71 293 1.0 5.0 0.00 0.00 0.00 11 1023.8
20260902185704 71 307 1.0 7.0 0.00 0.00 0.00 11 1023.8
20260902185141 72 116 1.0 4.0 0.00 0.00 0.00 11 1023.9
20260902184659 72 282 1.0 6.0 0.00 0.00 0.00 11 1023.8
20260902184157 73 139 1.0 6.0 0.00 0.00 0.00 11 1023.8
20260902183653 72 228 1.0 4.0 0.00 0.00 0.00 11 1023.8
20260902183151 71 233 2.0 5.0 0.00 0.00 0.00 12 1023.8
20260902182700 71 238 1.0 4.0 0.00 0.00 0.00 11 1023.8
20260902182157 72 257 1.0 5.0 0.00 0.00 0.00 11 1023.8
20260902181716 71 277 1.0 5.0 0.00 0.00 0.00 12 1023.8
20260902181152 71 288 0.0 6.0 0.00 0.00 0.00 13 1023.8
20260902180649 70 290 1.0 6.0 0.00 0.00 0.00 12 1023.7
20260902180151 70 261 1.0 4.0 0.00 0.00 0.00 12 1023.8
20260902175650 71 276 1.0 3.0 0.00 0.00 0.00 12 1023.8
20260902175148 70 349 1.0 6.0 0.00 0.00 0.00 12 1023.9
20260902174646 70 252 2.0 6.0 0.00 0.00 0.00 13 1023.9
20260902174215 71 262 1.0 4.0 0.00 0.00 0.00 12 1023.9
20260902173652 70 77 0.0 5.0 0.00 0.00 0.00 14 1023.9
20260902173150 69 263 1.0 5.0 0.00 0.00 0.00 13 1023.9
20260902172647 69 262 0.0 3.0 0.00 0.00 0.00 13 1023.8
20260902172144 68 327 1.0 3.0 0.00 0.00 0.00 13 1023.9
20260902171701 68 266 0.0 2.0 0.00 0.00 0.00 14 1023.9
20260902171218 69 292 0.0 2.0 0.00 0.00 0.00 13 1023.8
20260902170656 68 155 0.0 2.0 0.00 0.00 0.00 14 1023.9
20260902170154 67 256 0.0 2.0 0.00 0.00 0.00 14 1023.8
20260902165713 66 257 0.0 2.0 0.00 0.00 0.00 14 1023.8
20260902165150 66 283 1.0 4.0 0.00 0.00 0.00 15 1023.8
20260902164648 66 300 1.0 4.0 0.00 0.00 0.00 14 1023.8
20260902164146 66 285 0.0 4.0 0.00 0.00 0.00 15 1023.8
20260902163644 65 225 1.0 4.0 0.00 0.00 0.00 15 1023.7
20260902163144 64 262 1.0 3.0 0.00 0.00 0.00 16 1023.6
20260902162641 64 262 1.0 5.0 0.00 0.00 0.00 15 1023.6
20260902162139 64 199 1.0 5.0 0.00 0.00 0.00 15 1023.6
20260902161657 63 250 0.0 3.0 0.00 0.00 0.00 15 1023.6
20260902161211 63 244 1.0 4.0 0.00 0.00 0.00 15 1023.5
20260902160647 63 304 0.0 4.0 0.00 0.00 0.00 15 1023.4
20260902160145 62 280 1.0 4.0 0.00 0.00 0.00 15 1023.4
20260902155649 61 240 0.0 10.0 0.00 0.00 0.00 15 1023.3
20260902155146 61 239 1.0 10.0 0.00 0.00 0.00 15 1023.2
20260902154644 60 244 2.0 6.0 0.00 0.00 0.00 15 1023.2
20260902154201 60 193 1.0 13.0 0.00 0.00 0.00 16 1023.2
20260902153658 60 270 2.0 13.0 0.00 0.00 0.00 16 1023.1
20260902153216 59 245 1.0 10.0 0.00 0.00 0.00 16 1023.1
20260902152714 59 207 2.0 10.0 0.00 0.00 0.00 17 1023.0
20260902152211 59 239 2.0 7.0 0.00 0.00 0.00 17 1023.0
20260902151647 58 262 2.0 7.0 0.00 0.00 0.00 17 1023.0
20260902151145 58 316 1.0 5.0 0.00 0.00 0.00 17 1023.0
20260902150642 57 305 0.0 3.0 0.00 0.00 0.00 18 1022.9
20260902150140 57 302 0.0 4.0 0.00 0.00 0.00 19 1022.8
20260902145640 56 255 1.0 8.0 0.00 0.00 0.00 19 1022.9
20260902145158 56 152 2.0 8.0 0.00 0.00 0.00 19 1022.8
20260902144656 56 248 1.0 4.0 0.00 0.00 0.00 20 1022.9
20260902144215 55 174 0.0 4.0 0.00 0.00 0.00 21 1022.8
20260902143651 55 255 1.0 5.0 0.00 0.00 0.00 21 1022.7
20260902143149 54 125 1.0 5.0 0.00 0.00 0.00 21 1022.7
20260902142646 53 19 1.0 5.0 0.00 0.00 0.00 23 1022.6
20260902142145 53 305 1.0 4.0 0.00 0.00 0.00 25 1022.6
20260902141648 52 136 0.0 4.0 0.00 0.00 0.00 26 1022.6
20260902141145 51 243 0.0 3.0 0.00 0.00 0.00 29 1022.5
20260902140643 51 139 0.0 3.0 0.00 0.00 0.00 31 1022.4
20260902140141 50 1 0.0 1.0 0.00 0.00 0.00 33 1022.4
20260902135721 49 302 0.0 3.0 0.00 0.00 0.00 34 1022.4
20260902135159 49 250 0.0 3.0 0.00 0.00 0.00 35 1022.2
20260902134659 49 41 1.0 3.0 0.00 0.00 0.00 35 1022.2
20260902134149 48 263 0.0 1.0 0.00 0.00 0.00 35 1022.1
20260902133647 48 305 0.0 4.0 0.00 0.00 0.00 36 1022.0
20260902133144 47 285 0.0 2.0 0.00 0.00 0.00 36 1022.1
20260902132642 47 39 0.0 1.0 0.00 0.00 0.00 38 1022.1
20260902132200 47 342 0.0 2.0 0.00 0.00 0.00 37 1022.0
20260902131657 47 46 0.0 2.0 0.00 0.00 0.00 36 1021.9
20260902131155 47 21 0.0 1.0 0.00 0.00 0.00 35 1021.9
20260902130649 47 285 0.0 1.0 0.00 0.00 0.00 35 1021.8
20260902130147 47 32 0.0 1.0 0.00 0.00 0.00 33 1021.8
20260902125646 47 19 0.0 1.0 0.00 0.00 0.00 34 1021.8
20260902125144 47 58 0.0 1.0 0.00 0.00 0.00 35 1021.8
20260902124642 47 51 0.0 1.0 0.00 0.00 0.00 36 1021.8
20260902124221 47 278 0.0 1.0 0.00 0.00 0.00 36 1021.9
20260902123657 47 312 0.0 1.0 0.00 0.00 0.00 36 1021.9
20260902123155 47 158 0.0 2.0 0.00 0.00 0.00 36 1021.9
20260902122711 47 51 0.0 1.0 0.00 0.00 0.00 37 1021.9
20260902122152 47 65 0.0 1.0 0.00 0.00 0.00 36 1021.9
20260902121649 47 34 0.0 1.0 0.00 0.00 0.00 36 1021.9
20260902121146 48 34 0.0 2.0 0.00 0.00 0.00 36 1021.9
20260902120646 48 302 0.0 2.0 0.00 0.00 0.00 36 1021.9
20260902120146 48 237 0.0 2.0 0.00 0.00 0.00 36 1022.0
20260902115645 47 251 0.0 2.0 0.00 0.00 0.00 37 1022.1
20260902115203 47 260 0.0 1.0 0.00 0.00 0.00 36 1022.1
20260902114700 47 255 0.0 1.0 0.00 0.00 0.00 36 1022.0
20260902114157 47 252 0.0 1.0 0.00 0.00 0.00 35 1022.0
20260902113655 47 252 0.0 1.0 0.00 0.00 0.00 34 1022.1
20260902113213 47 37 0.0 2.0 0.00 0.00 0.00 34 1021.9
20260902112649 47 42 0.0 2.0 0.00 0.00 0.00 33 1021.9
20260902112146 47 321 0.0 2.0 0.00 0.00 0.00 33 1021.9
20260902111644 47 33 0.0 2.0 0.00 0.00 0.00 32 1022.0
20260902111202 47 242 0.0 1.0 0.00 0.00 0.00 32 1022.1
20260902110658 47 39 0.0 1.0 0.00 0.00 0.00 34 1022.0
20260902110156 47 279 0.0 0.0 0.00 0.00 0.00 33 1022.0
20260902105655 48 264 0.0 0.0 0.00 0.00 0.00 32 1022.1
20260902105157 48 264 0.0 1.0 0.00 0.00 0.00 32 1022.0
20260902104655 48 272 0.0 1.0 0.00 0.00 0.00 32 1022.2
20260902104152 48 266 0.0 1.0 0.00 0.00 0.00 31 1022.1
20260902103649 48 264 0.0 1.0 0.00 0.00 0.00 31 1022.1
20260902103208 48 264 0.0 1.0 0.00 0.00 0.00 31 1022.2
20260902102644 48 252 0.0 1.0 0.00 0.00 0.00 32 1022.2
20260902102202 48 287 0.0 1.0 0.00 0.00 0.00 32 1022.2
20260902101659 48 287 0.0 1.0 0.00 0.00 0.00 32 1022.2
20260902101157 48 234 0.0 1.0 0.00 0.00 0.00 33 1022.1
20260902100656 48 262 0.0 1.0 0.00 0.00 0.00 33 1022.2
20260902100153 48 252 0.0 1.0 0.00 0.00 0.00 33 1022.2
20260902095653 48 65 0.0 1.0 0.00 0.00 0.00 33 1022.1
20260902095150 48 30 0.0 1.0 0.00 0.00 0.00 33 1022.1
20260902094647 48 266 0.0 2.0 0.00 0.00 0.00 33 1022.2
20260902094145 48 263 0.0 2.0 0.00 0.00 0.00 34 1022.3
20260902093648 48 271 0.0 1.0 0.00 0.00 0.00 34 1022.3
20260902093145 48 34 0.0 1.0 0.00 0.00 0.00 34 1022.1
20260902092644 48 282 0.0 2.0 0.00 0.00 0.00 35 1022.2
20260902092202 48 42 0.0 2.0 0.00 0.00 0.00 35 1022.3
20260902091720 48 262 0.0 1.0 0.00 0.00 0.00 35 1022.3
20260902091157 48 89 0.0 1.0 0.00 0.00 0.00 36 1022.3
20260902090715 48 125 0.0 1.0 0.00 0.00 0.00 36 1022.3
20260902090151 48 274 0.0 1.0 0.00 0.00 0.00 37 1022.3
20260902085650 48 108 0.0 1.0 0.00 0.00 0.00 38 1022.4
20260902085143 48 115 0.0 1.0 0.00 0.00 0.00 39 1022.4
20260902084701 48 48 0.0 1.0 0.00 0.00 0.00 39 1022.4
20260902084159 48 126 0.0 1.0 0.00 0.00 0.00 39 1022.5
20260902083657 48 40 0.0 1.0 0.00 0.00 0.00 41 1022.6
20260902083155 48 41 0.0 1.0 0.00 0.00 0.00 40 1022.5
20260902082652 47 26 0.0 1.0 0.00 0.00 0.00 42 1022.6